User: anonymous   Login
Location: Unspecified
(0.0000°N, 0.0000°E)
Time: 23:50:05
(UTC+00:00)
Language:

TBA - TO BE ASSIGNED - Orbit

View from above orbital plane
View from above orbital plane
View from above satellite
View from above satellite

Ground track
Ground track

The orbit is defined by the following mean orbital elements,

1 67409U          26145.38722973 +.00000000 +00000-0 +49251-3 0 00002
2 67409  43.0020 165.0713 0002107 263.2815  96.7797 15.27592531    02
Epoch (UTC): 25 May 2026 09:17:36
Eccentricity: 0.0002107
inclination: 43.0020°
perigee height: 482 km
apogee height: 484 km
right ascension of ascending node: 165.0713°
argument of perigee: 263.2815°
revolutions per day: 15.27592531
mean anomaly at epoch: 96.7797°

The dashed part of the orbit path shows where the satellite is in the earth's shadow,  

DLR